Location: La Brionne
(46.1728°N, 1.7849°E)
Time: 12:23:45
(UTC+00:00)

Cosmos 2219 Rocket - Pass Details

Date: 28 October 2021
Orbit: 826 x 848 km, 71.0° (Epoch: 01 December)

Event Time Altitude Azimuth Distance (km) Brightness Sun altitude
Exits shadow 02:17:11 16° 35° (NE) 2,085 4.7 -42.8°
Maximum altitude 02:17:33 16° 40° (NE) 2,080 4.7 -42.8°
Drops below altitude 10° 02:20:56 10° 77° (ENE) 2,469 5.2 -42.3°
Sets 02:24:26 0° 99° (E) 3,403 5.9 -41.7°
